Tracking 31027 objects as of 19-Jul-2025
HD Live streaming from Space Station
objects crossing your sky now

ASTRA 1G

Track ASTRA 1G now!
ASTRA 1G is classified as:


NORAD ID: 25071
Int'l Code: 1997-076A
Perigee: 36,104.4 km
Apogee: 36,182.9 km
Inclination: 8.7 °
Period: 1,454.0 minutes
Semi major axis: 42514 km
RCS: 1.138 m2 (large)
Launch date: December 2, 1997
Source: SOCIETE EUROPEENNE DES SATELLITES (SES)
Launch site: TYURATAM MISSILE AND SPACE COMPLEX (TTMTR)

Direct-to-home tv; multimedia; 32 Ku-band transponders; Europe
Your satellite tracking list
STARLINK-4010
Track 1 satellite(s)




NASA's NSSDC Master Catalog

Two Line Element Set (TLE):
1 25071U 97076A   25199.31660148  .00000040  00000-0  00000-0 0  9993
2 25071   8.7312  58.0310 0009237 131.9845  78.2977  0.99036496101061
Source of the keplerian elements: AFSPC